When you browse on this site, cookies collect data to enhance your experience and personalize the content and advertising you see.
Visit our Privacy Policy to learn more. By continuing to use the site, you agree to this use of cookies and data.
  • In United Kingdom
  • List of Countries
  • For 7 days
  • Water Temperature
  • Weather Map
  • Weather Widgets
  • user-avatar
    Login

    Hourly Weather Kinshasa

    Today, 20 September, Friday

    Time Temperature Precipitation Wind Pressure Humidity
    00:00 +22°C° 0 mm 1 mps 708 mmHg 98%
    01:00 +20°C° 0 mm 0 mps 707 mmHg 98%
    02:00 +20°C° 0.1 mm 0 mps 707 mmHg 98%
    03:00 +22°C° 0.1 mm 1 mps 707 mmHg 98%
    04:00 +22°C° 0.1 mm 1 mps 707 mmHg 98%
    05:00 +22°C° 0 mm 1 mps 707 mmHg 97%
    06:00 +22°C° 0 mm 1 mps 708 mmHg 96%
    07:00 +23°C° 0 mm 1 mps 708 mmHg 96%
    08:00 +25°C° 0 mm 1 mps 709 mmHg 88%
    09:00 +27°C° 0 mm 1 mps 709 mmHg 81%
    10:00 +28°C° 0 mm 1 mps 709 mmHg 73%
    11:00 +29°C° 0 mm 1 mps 708 mmHg 70%
    12:00 +30°C° 0 mm 1 mps 707 mmHg 67%
    13:00 +31°C° 0 mm 1 mps 706 mmHg 64%
    14:00 +31°C° 0.6 mm 1 mps 706 mmHg 69%
    15:00 +30°C° 0.6 mm 1 mps 706 mmHg 73%
    16:00 +28°C° 0.6 mm 0 mps 705 mmHg 78%
    17:00 +28°C° 0.7 mm 1 mps 706 mmHg 83%
    18:00 +26°C° 0.7 mm 1 mps 706 mmHg 87%
    19:00 +24°C° 0.7 mm 1 mps 707 mmHg 92%
    20:00 +24°C° 0.2 mm 1 mps 707 mmHg 94%
    21:00 +23°C° 0.2 mm 1 mps 707 mmHg 95%
    22:00 +23°C° 0.2 mm 1 mps 708 mmHg 96%
    23:00 +22°C° 0.6 mm 1 mps 708 mmHg 96%

    Tomorrow, 21 September, Saturday

    Time Temperature Precipitation Wind Pressure Humidity
    00:00 +22°C° 0.6 mm 1 mps 707 mmHg 97%
    01:00 +22°C° 0.6 mm 1 mps 707 mmHg 98%
    02:00 +22°C° 0 mm 1 mps 707 mmHg 98%
    03:00 +22°C° 0 mm 1 mps 707 mmHg 98%
    04:00 +22°C° 0 mm 1 mps 706 mmHg 98%
    05:00 +20°C° 0 mm 0 mps 707 mmHg 98%
    06:00 +20°C° 0 mm 0 mps 708 mmHg 98%
    07:00 +20°C° 0 mm 0 mps 708 mmHg 97%
    08:00 +21°C° 0 mm 0 mps 709 mmHg 92%
    09:00 +23°C° 0 mm 0 mps 709 mmHg 86%
    10:00 +24°C° 0 mm 0 mps 709 mmHg 80%
    11:00 +27°C° 0 mm 1 mps 708 mmHg 77%
    12:00 +28°C° 0 mm 1 mps 707 mmHg 74%
    13:00 +28°C° 0 mm 1 mps 706 mmHg 71%
    14:00 +27°C° 0 mm 1 mps 706 mmHg 75%
    15:00 +27°C° 0 mm 1 mps 705 mmHg 79%
    16:00 +26°C° 0 mm 1 mps 704 mmHg 84%
    17:00 +25°C° 0.1 mm 1 mps 705 mmHg 86%
    18:00 +24°C° 0.1 mm 1 mps 705 mmHg 89%
    19:00 +20°C° 0.1 mm 0 mps 706 mmHg 92%
    20:00 +20°C° 0.7 mm 0 mps 706 mmHg 93%
    21:00 +22°C° 0.7 mm 1 mps 706 mmHg 94%
    22:00 +21°C° 0.7 mm 1 mps 707 mmHg 94%
    23:00 +21°C° 0.1 mm 1 mps 706 mmHg 94%

    Day after tomorrow, 22 September, Sunday

    Time Temperature Precipitation Wind Pressure Humidity
    00:00 +21°C° 0.1 mm 1 mps 706 mmHg 94%
    01:00 +21°C° 0.1 mm 1 mps 706 mmHg 93%
    02:00 +21°C° 0.1 mm 1 mps 706 mmHg 93%
    03:00 +21°C° 0.1 mm 1 mps 706 mmHg 94%
    04:00 +21°C° 0.1 mm 1 mps 706 mmHg 94%
    05:00 +21°C° 0.1 mm 1 mps 707 mmHg 94%
    06:00 +21°C° 0.1 mm 1 mps 707 mmHg 94%
    07:00 +22°C° 0.1 mm 1 mps 708 mmHg 95%
    08:00 +24°C° 0 mm 1 mps 708 mmHg 87%
    09:00 +26°C° 0 mm 1 mps 708 mmHg 80%
    10:00 +28°C° 0 mm 1 mps 709 mmHg 73%
    11:00 +29°C° 0.9 mm 1 mps 708 mmHg 75%
    12:00 +29°C° 0.9 mm 1 mps 707 mmHg 77%
    13:00 +29°C° 0.9 mm 1 mps 706 mmHg 78%
    14:00 +29°C° 1.1 mm 1 mps 706 mmHg 82%
    15:00 +28°C° 1.1 mm 1 mps 706 mmHg 85%
    16:00 +28°C° 1.1 mm 1 mps 705 mmHg 88%
    17:00 +27°C° 0.4 mm 1 mps 706 mmHg 91%
    18:00 +25°C° 0.4 mm 1 mps 706 mmHg 93%
    19:00 +24°C° 0.4 mm 1 mps 706 mmHg 95%
    20:00 +24°C° 0 mm 1 mps 706 mmHg 95%
    21:00 +21°C° 0 mm 0 mps 707 mmHg 95%
    22:00 +21°C° 0 mm 0 mps 707 mmHg 95%
    23:00 +21°C° 0 mm 0 mps 707 mmHg 95%

    23 September, Monday

    Time Temperature Precipitation Wind Pressure Humidity
    00:00 +21°C° 0 mm 0 mps 707 mmHg 95%
    01:00 +21°C° 0 mm 0 mps 707 mmHg 96%
    02:00 +21°C° 0.1 mm 0 mps 707 mmHg 96%
    03:00 +20°C° 0.1 mm 0 mps 706 mmHg 96%
    04:00 +20°C° 0.1 mm 0 mps 706 mmHg 96%
    05:00 +20°C° 0.2 mm 0 mps 707 mmHg 96%
    06:00 +22°C° 0.2 mm 1 mps 708 mmHg 96%
    07:00 +23°C° 0.2 mm 1 mps 708 mmHg 97%
    08:00 +24°C° 0.9 mm 1 mps 708 mmHg 95%
    09:00 +25°C° 0.9 mm 1 mps 709 mmHg 93%
    10:00 +26°C° 0.9 mm 1 mps 709 mmHg 91%
    11:00 +27°C° 1.4 mm 1 mps 708 mmHg 89%
    12:00 +28°C° 1.4 mm 1 mps 707 mmHg 87%
    13:00 +28°C° 1.4 mm 1 mps 706 mmHg 85%
    14:00 +28°C° 1 mm 1 mps 706 mmHg 85%
    15:00 +28°C° 1 mm 1 mps 706 mmHg 85%
    16:00 +28°C° 1 mm 1 mps 706 mmHg 86%
    17:00 +26°C° 0.1 mm 1 mps 706 mmHg 89%
    18:00 +25°C° 0.1 mm 1 mps 706 mmHg 92%
    19:00 +24°C° 0.1 mm 1 mps 706 mmHg 95%
    20:00 +23°C° 0.2 mm 1 mps 707 mmHg 96%
    21:00 +23°C° 0.2 mm 1 mps 707 mmHg 96%
    22:00 +23°C° 0.2 mm 1 mps 707 mmHg 97%
    23:00 +22°C° 0.1 mm 1 mps 707 mmHg 97%

    24 September, Tuesday

    Time Temperature Precipitation Wind Pressure Humidity
    00:00 +22°C° 0.1 mm 1 mps 707 mmHg 97%
    01:00 +22°C° 0.1 mm 1 mps 707 mmHg 98%
    02:00 +22°C° 0 mm 1 mps 707 mmHg 98%
    03:00 +22°C° 0 mm 1 mps 707 mmHg 98%
    04:00 +22°C° 0 mm 1 mps 707 mmHg 98%
    05:00 +22°C° 0 mm 1 mps 707 mmHg 97%
    06:00 +22°C° 0 mm 1 mps 708 mmHg 97%
    07:00 +23°C° 0 mm 1 mps 708 mmHg 96%
    08:00 +25°C° 0 mm 1 mps 709 mmHg 89%
    09:00 +27°C° 0 mm 2 mps 709 mmHg 81%
    10:00 +29°C° 0 mm 2 mps 709 mmHg 74%
    11:00 +29°C° 0.6 mm 2 mps 708 mmHg 75%
    12:00 +29°C° 0.6 mm 2 mps 707 mmHg 76%
    13:00 +30°C° 0.6 mm 1 mps 706 mmHg 77%
    14:00 +29°C° 1.7 mm 1 mps 706 mmHg 82%
    15:00 +28°C° 1.7 mm 1 mps 705 mmHg 87%
    16:00 +28°C° 1.7 mm 1 mps 705 mmHg 91%
    17:00 +26°C° 0.1 mm 1 mps 705 mmHg 92%
    18:00 +25°C° 0.1 mm 1 mps 706 mmHg 94%
    19:00 +24°C° 0.1 mm 1 mps 706 mmHg 95%
    20:00 +23°C° 0 mm 1 mps 706 mmHg 95%
    21:00 +23°C° 0 mm 1 mps 706 mmHg 95%
    22:00 +22°C° 0 mm 1 mps 707 mmHg 95%
    23:00 +22°C° 0 mm 1 mps 707 mmHg 96%

    25 September, Wednesday

    Time Temperature Precipitation Wind Pressure Humidity
    00:00 +22°C° 0 mm 1 mps 706 mmHg 96%
    01:00 +22°C° 0 mm 1 mps 706 mmHg 97%
    02:00 +22°C° 0 mm 1 mps 706 mmHg 97%
    03:00 +21°C° 0 mm 1 mps 706 mmHg 97%
    04:00 +21°C° 0 mm 1 mps 706 mmHg 98%
    05:00 +22°C° 0 mm 1 mps 707 mmHg 97%
    06:00 +21°C° 0 mm 2 mps 708 mmHg 97%
    07:00 +23°C° 0 mm 2 mps 708 mmHg 96%
    08:00 +24°C° 0 mm 2 mps 708 mmHg 89%
    09:00 +26°C° 0 mm 2 mps 709 mmHg 82%
    10:00 +28°C° 0 mm 2 mps 709 mmHg 75%
    11:00 +29°C° 0.6 mm 2 mps 708 mmHg 76%
    12:00 +29°C° 0.6 mm 2 mps 707 mmHg 77%
    13:00 +29°C° 0.6 mm 1 mps 706 mmHg 77%
    14:00 +29°C° 1.3 mm 1 mps 706 mmHg 80%
    15:00 +29°C° 1.3 mm 1 mps 706 mmHg 84%
    16:00 +26°C° 1.3 mm 0 mps 705 mmHg 87%
    17:00 +25°C° 1.2 mm 0 mps 705 mmHg 89%
    18:00 +25°C° 1.2 mm 1 mps 706 mmHg 91%
    19:00 +24°C° 1.2 mm 1 mps 706 mmHg 93%
    20:00 +22°C° 0.6 mm 0 mps 706 mmHg 93%
    21:00 +22°C° 0.6 mm 0 mps 707 mmHg 93%
    22:00 +22°C° 0.6 mm 0 mps 707 mmHg 94%
    23:00 +21°C° 0.2 mm 0 mps 707 mmHg 95%
    Show more